Regional Weather Roundup
Issued by NWS

Home | Current Version | Previous Version | Text Only | Print | Product List | Glossary On
Versions: 1 2 3 4 5 6 7 8 9 10 11 12 13 14 15 16 17 18 19 20 21 22 23 24 25 26 27 28 29 30 31 32 33 34 35 36 37 38 39 40 41 42 43 44 45 46 47 48 49 50
000
ASUS43 KTOP 260608
RWRKS

WEATHER ROUNDUP FOR KANSAS
NATIONAL WEATHER SERVICE GOODLAND KS
1200 AM CST WED NOV 26 2014

NOTE:  "FAIR" INDICATES FEW OR NO CLOUDS BELOW 12,000 FEET WITH NO
SIGNIFICANT WEATHER AND/OR OBSTRUCTIONS TO VISIBILITY.

KSZ001>006-013>018-027>032-041>047-260700-
NORTHWEST KANSAS

CITY           SKY/WX    TMP DP  RH WIND       PRES   REMARKS
GOODLAND       MIX PCPN  34  33  96 NW14      30.06R WCI  25
6HR MIN TEMP:  34; 6HR MAX TEMP:  46; 6HR PCP:  0.02;

HAYS           CLOUDY    45  21  39 NW14      29.95R
HILL CITY      CLOUDY    46  29  51 W15       29.97R
6HR MIN TEMP:  42; 6HR MAX TEMP:  49;

RUSSELL        CLOUDY    40  21  46 SW7       29.93R
6HR MIN TEMP:  40; 6HR MAX TEMP:  46;

$$

KSZ061>065-074>080-084>089-260700-
SOUTHWEST KANSAS

CITY           SKY/WX    TMP DP  RH WIND       PRES   REMARKS
DODGE CITY     CLOUDY    38  18  44 NW13      29.96R WCI  30
6HR MIN TEMP:  33; 6HR MAX TEMP:  43;

ELKHART          N/A     37  17  44 W12         N/A  WCI  29
GARDEN CITY    CLOUDY    41  22  46 N20       29.98R
6HR MIN TEMP:  33; 6HR MAX TEMP:  44;

GREAT BEND     CLOUDY    39  19  45 W8        29.96R
LIBERAL        PTCLDY    30  12  47 W13       29.97R WCI  20
PRATT          CLOUDY    37  27  65 S9        29.93S
$$

KSZ066>073-081>083-090>101-260700-
SOUTHEAST KANSAS

CITY           SKY/WX    TMP DP  RH WIND       PRES   REMARKS
CHANUTE        CLOUDY    39  25  57 S12       30.01F WCI  32
6HR MIN TEMP:  33; 6HR MAX TEMP:  39;

COFFEYVILLE    MOCLDY    39  25  57 S8        30.04F
6HR MIN TEMP:  37; 6HR MAX TEMP:  40;

HUTCHINSON     CLOUDY    41  28  60 S7        29.94S
6HR MIN TEMP:  41; 6HR MAX TEMP:  45;

MEDICINE LODGE   N/A     37  27  67 SE3       29.93F
NEWTON         CLOUDY    41  25  52 S9        29.95S
PARSONS        MOCLDY    40  25  55 SE7       30.03F
6HR MIN TEMP:  38; 6HR MAX TEMP:  41;

WICHITA INTL   MOCLDY    42  27  55 S13       29.94F
6HR MIN TEMP:  42; 6HR MAX TEMP:  45;

WICHITA JABRA  MOCLDY    39  27  62 S12       29.94F WCI  32
6HR MIN TEMP:  39; 6HR MAX TEMP:  43;

WICHITA MCCONL MOCLDY    41  27  57 S13       29.95F
WINFIELD       MOCLDY    38  27  64 S9        29.98F
6HR MIN TEMP:  38; 6HR MAX TEMP:  42;

$$

KSZ007>012-019>026-033>040-048>060-102>105-260700-
NORTHEAST KANSAS

CITY           SKY/WX    TMP DP  RH WIND       PRES   REMARKS
CONCORDIA      CLOUDY    42  26  53 W7        29.90R
6HR MIN TEMP:  42; 6HR MAX TEMP:  46;

EMPORIA        CLOUDY    37  23  56 S17G25    29.95F WCI  27
6HR MIN TEMP:  36; 6HR MAX TEMP:  41;

LAWRENCE       CLOUDY    37  23  56 S7        29.97F
6HR MIN TEMP:  32; 6HR MAX TEMP:  39;

MANHATTAN      CLOUDY    44  27  51 SW16      29.91F
6HR MIN TEMP:  43; 6HR MAX TEMP:  46;

MARYSVILLE     CLOUDY    43  28  56 SW12      29.89R
OLATHE IND     CLOUDY    38  21  50 S16       29.97F WCI  29
6HR MIN TEMP:  33; 6HR MAX TEMP:  39;

OLATHE EXE     CLOUDY    37  22  54 S12       29.97F WCI  29
6HR MIN TEMP:  34; 6HR MAX TEMP:  37;

SALINA         CLOUDY    44  28  53 SW12      29.93S
6HR MIN TEMP:  44; 6HR MAX TEMP:  47;

TOPEKA BILLARD CLOUDY    42  23  46 S8        29.95F
6HR MIN TEMP:  39; 6HR MAX TEMP:  42;

TOPEKA FORBES  CLOUDY    41  23  48 S13       29.93F
6HR MIN TEMP:  40; 6HR MAX TEMP:  41;

$$


USA.gov is the U.S. government's official web portal to all federal, state and local government web resources and services.